Simultaneous Nadir Overpasses (SNOs) Predictions

Prediction of SNOs between GOES-17 and METOP-B Satellite Orbit:

Table of predicted SNOs for the next 14.0 days since TLE Epoch: 4/4/2025
Index Date Time (GOES-17) GOES-17 Lat,Lon METOP-B Lat,Lon Distance(km) Time Diff (sec)
1 04/05/2025 16:13:01 0.03,-104.41 0.22,-105.41 112.56 80
2 04/06/2025 15:49:42 0.03,-104.41 -0.87,-100.42 454.58 80
3 04/08/2025 04:08:44 -0.03,-104.38 -0.17,-105.05 76.41 80
4 04/09/2025 03:50:46 -0.02,-104.38 0.92,-100.06 491.17 80
5 04/10/2025 16:09:40 0.02,-104.42 0.06,-104.66 27.35 80
6 04/13/2025 04:08:04 -0.02,-104.39 0.01,-104.31 10.13 80
7 04/15/2025 16:03:39 0.02,-104.43 -0.10,-103.91 59.30 80
8 04/17/2025 04:22:41 -0.02,-104.40 -0.91,-108.54 471.71 80
9 04/18/2025 04:04:43 -0.02,-104.40 0.20,-103.56 95.79 80
